Flag for United Kingdom Weather past 2 weeks in Slough, England, United Kingdom

Now
59 °F

Passing clouds.


Feels Like: 57 °F
Forecast: 51 / 62 °F
Wind: 9 mph from West

Location: London City Airport

Current Time: Sep 3, 2015 at 12:56:28 PM

Latest Report: Sep 3, 2015 at 12:20 PM


Visibility: N/A

Pressure: 29.98 "Hg

Humidity: 68%

Dew point: 48 °F

Location of SloughLocation

Historic Weather in Slough — Graph

°F

Slough temperature yesterday

Maximum temperature yesterday: 64 °F (at 12:50 PM)
Minimum temperature yesterday: 52 °F (at 5:20 AM)
Average temperature yesterday: 58 °F

Past Weeks' High & Low Weather Summary

 TemperatureHumidityPressure
High86 °F (Aug 22, 1:20 PM)94% (Aug 20, 1:50 AM)30.15 "Hg (Aug 20, 1:50 AM)
Low52 °F (Sep 2, 5:20 AM)35% (Aug 22, 3:50 PM)29.39 "Hg (Aug 24, 2:50 PM)
Average64 °F76%29.91 "Hg
* Reported Aug 19 11:20 AM — Sep 3 11:20 AM, Slough, Weather by CustomWeather, © 2015

Note: Actual official high and low records may vary slightly from our data, if they occured in-between our weather recording intervals... More about our weather records

Advertising

Slough weather history for previous 24 hours

 ConditionsComfort  
Time TempWeatherWind HumidityBarometerVisibility
11:20 AM
Thu, Sep 3
57 °FScattered clouds.12 mph67%29.98 "HgN/A
10:50 AM57 °FPassing clouds.10 mph67%29.98 "HgN/A
10:20 AM57 °FPassing clouds.9 mph67%29.98 "HgN/A
9:50 AM57 °FPassing clouds.13 mph67%29.98 "HgN/A
9:20 AM57 °FPassing clouds.13 mph67%29.98 "HgN/A
8:50 AM55 °FPassing clouds.10 mph77%29.98 "HgN/A
8:20 AM55 °FPassing clouds.8 mph77%30.01 "HgN/A
7:50 AM54 °FSunny.9 mph82%30.01 "Hg10 mi
7:20 AM54 °FSunny.9 mph82%29.98 "Hg10 mi
6:50 AM52 °FPassing clouds.5 mph88%29.98 "HgN/A
6:20 AM52 °FClear.7 mph82%29.98 "Hg10 mi
5:20 AM54 °FCool.7 mph82%30.01 "HgN/A
4:20 AM54 °FCool.8 mph82%29.98 "HgN/A
3:50 AM54 °FCool.6 mph82%30.01 "HgN/A
3:20 AM55 °FCool.7 mph77%30.01 "HgN/A
2:50 AM55 °FCool.10 mph82%30.01 "HgN/A
2:20 AM55 °FCool.6 mph82%30.01 "HgN/A
1:50 AM57 °FPassing clouds.7 mph77%30.01 "HgN/A
1:20 AM57 °FPassing clouds.6 mph77%30.01 "HgN/A
12:50 AM57 °FCool.6 mph77%30.01 "HgN/A
12:20 AM57 °FCool.5 mph77%30.01 "HgN/A
11:50 PM
Wed, Sep 2
57 °FCool.7 mph77%30.01 "HgN/A
11:20 PM57 °FSprinkles. Passing clouds.7 mph82%30.01 "HgN/A
10:20 PM57 °FLight rain. Overcast.10 mph77%30.04 "HgN/A
9:50 PM57 °FRain. Passing clouds.8 mph82%30.04 "HgN/A
9:20 PM59 °FClear.3 mph68%30.04 "Hg10 mi
8:50 PM59 °FPassing clouds.5 mph72%30.04 "HgN/A
8:20 PM59 °FSprinkles. Scattered clouds.6 mph68%30.04 "HgN/A
7:50 PM61 °FSprinkles. Scattered clouds.7 mph63%30.04 "HgN/A
7:20 PM63 °FScattered showers. Passing clouds.7 mph56%30.01 "HgN/A
6:50 PM63 °FPassing clouds.2 mph56%30.01 "HgN/A
6:20 PM63 °FScattered clouds.6 mph52%30.01 "HgN/A
5:50 PM63 °FScattered clouds.5 mph56%30.01 "HgN/A
5:20 PM63 °FPassing clouds.6 mph56%30.01 "HgN/A
4:20 PM63 °FPassing clouds.10 mph56%30.01 "HgN/A
3:50 PM64 °FPassing clouds.12 mph49%30.01 "HgN/A
3:20 PM63 °FScattered clouds.12 mph59%30.01 "HgN/A
2:50 PM64 °FPassing clouds.5 mph52%30.04 "HgN/A
2:20 PM63 °FScattered clouds.8 mph56%30.04 "HgN/A
1:50 PM63 °FScattered clouds.9 mph59%30.04 "HgN/A
1:20 PM64 °FScattered clouds.6 mph56%30.04 "HgN/A
12:50 PM64 °FScattered clouds.8 mph56%30.04 "HgN/A
12:20 PM61 °FScattered clouds.8 mph63%30.07 "HgN/A
Weather by CustomWeather, © 2015

See weather overviewHow to use our weather pages